This is the latest recevied weather packets stored in our database for station/object DL4ABR-6. If no packets are shown the sender has not sent any weather packets the latest 10 day(s).
| Time | Temp. | Humidity | Pressure | Rain* | Wind** | Luminosity | Snow |
|---|---|---|---|---|---|---|---|
| 1777649980 | 23.33° C | 38% | 1021.5 hPa | 0 mm | - | - | - |
| 1777649170 | 23.33° C | 35% | 1021.7 hPa | 0 mm | - | - | - |
| 1777648291 | 23.33° C | 35% | 1021.8 hPa | 0 mm | - | - | - |
| 1777647520 | 23.89° C | 35% | 1021.9 hPa | 0 mm | - | - | - |
| 1777646710 | 23.33° C | 37% | 1022.2 hPa | 0 mm | - | - | - |
| 1777645855 | 24.44° C | 35% | 1022.3 hPa | 0 mm | - | - | - |
| 1777645050 | 25° C | 35% | 1022.4 hPa | 0 mm | - | - | - |
| 1777644320 | 23.89° C | 34% | 1022.4 hPa | 0 mm | - | - | - |
| 1777643440 | 22.78° C | 35% | 1022.5 hPa | 0 mm | - | - | - |
| 1777642675 | 23.89° C | 37% | 1022.9 hPa | 0 mm | - | - | - |
| 1777641870 | 23.89° C | 36% | 1023 hPa | 0 mm | - | - | - |
| 1777641130 | 22.78° C | 37% | 1023.2 hPa | 0 mm | - | - | - |
| 1777640410 | 22.78° C | 37% | 1023.2 hPa | 0 mm | - | - | - |
| 1777639580 | 22.78° C | 36% | 1023.3 hPa | 0 mm | - | - | - |
| 1777638820 | 23.89° C | 37% | 1023.6 hPa | 0 mm | - | - | - |
| 1777637940 | 22.78° C | 38% | 1023.6 hPa | 0 mm | - | - | - |
| 1777637201 | 22.78° C | 36% | 1023.8 hPa | 0 mm | - | - | - |
| 1777636330 | 22.78° C | 39% | 1023.8 hPa | 0 mm | - | - | - |
| 1777635430 | 22.22° C | 38% | 1023.9 hPa | 0 mm | - | - | - |
| 1777634555 | 21.67° C | 39% | 1024.2 hPa | 0 mm | - | - | - |
| 1777633690 | 21.11° C | 39% | 1024.1 hPa | 0 mm | - | - | - |
| 1777632830 | 21.67° C | 38% | 1024.6 hPa | 0 mm | - | - | - |
| 1777632105 | 21.11° C | 39% | 1024.5 hPa | 0 mm | - | - | - |
| 1777631275 | 21.11° C | 39% | 1024.7 hPa | 0 mm | - | - | - |
| 1777630470 | 21.67° C | 40% | 1024.9 hPa | 0 mm | - | - | - |
* Rain since midnight (hover to see other rain measurements)
** Current wind speed in m/s (hover to see current wind gust speed)